When you browse on this site, cookies collect data to enhance your experience and personalize the content and advertising you see.
Visit our Privacy Policy to learn more. By continuing to use the site, you agree to this use of cookies and data.
  • In Czech Republic
  • List of Countries
  • For 7 days
  • Water Temperature
  • Weather Map
  • Weather Widgets
  • user-avatar
    Login

    Hourly Weather Barinas

    Today, 20 February, Thursday

    Time Temperature Precipitation Wind Pressure Humidity
    00:00 +29°C° 0 mm 1 mps 742 mmHg 56%
    01:00 +29°C° 0 mm 1 mps 742 mmHg 56%
    02:00 +29°C° 0.1 mm 2 mps 742 mmHg 59%
    03:00 +28°C° 0.1 mm 2 mps 742 mmHg 61%
    04:00 +28°C° 0.1 mm 3 mps 741 mmHg 63%
    05:00 +27°C° 0.3 mm 2 mps 742 mmHg 67%
    06:00 +27°C° 0.3 mm 2 mps 743 mmHg 71%
    07:00 +27°C° 0.3 mm 1 mps 743 mmHg 75%
    08:00 +27°C° 0.2 mm 1 mps 744 mmHg 73%
    09:00 +27°C° 0.2 mm 1 mps 744 mmHg 71%
    10:00 +28°C° 0.2 mm 1 mps 744 mmHg 70%
    11:00 +30°C° 0 mm 2 mps 743 mmHg 62%
    12:00 +32°C° 0 mm 2 mps 743 mmHg 54%
    13:00 +35°C° 0 mm 3 mps 742 mmHg 46%
    14:00 +35°C° 0 mm 2 mps 741 mmHg 45%
    15:00 +35°C° 0 mm 2 mps 741 mmHg 45%
    16:00 +36°C° 0 mm 2 mps 740 mmHg 44%
    17:00 +34°C° 0 mm 2 mps 740 mmHg 48%
    18:00 +32°C° 0 mm 2 mps 741 mmHg 52%
    19:00 +30°C° 0 mm 2 mps 741 mmHg 56%
    20:00 +30°C° 0 mm 2 mps 742 mmHg 58%
    21:00 +29°C° 0 mm 2 mps 742 mmHg 60%
    22:00 +29°C° 0 mm 2 mps 742 mmHg 62%
    23:00 +28°C° 0 mm 2 mps 742 mmHg 61%

    Tomorrow, 21 February, Friday

    Time Temperature Precipitation Wind Pressure Humidity
    00:00 +28°C° 0 mm 1 mps 742 mmHg 61%
    01:00 +28°C° 0 mm 1 mps 742 mmHg 61%
    08:00 +27°C° 0 mm 3 mps 744 mmHg 66%
    09:00 +28°C° 0 mm 3 mps 744 mmHg 62%
    10:00 +29°C° 0 mm 3 mps 745 mmHg 59%
    11:00 +31°C° 0 mm 3 mps 744 mmHg 53%
    12:00 +34°C° 0 mm 2 mps 743 mmHg 47%
    13:00 +36°C° 0 mm 2 mps 742 mmHg 41%
    14:00 +36°C° 0 mm 2 mps 741 mmHg 40%
    15:00 +36°C° 0 mm 2 mps 741 mmHg 39%
    16:00 +37°C° 0 mm 2 mps 740 mmHg 38%
    17:00 +35°C° 0 mm 2 mps 740 mmHg 43%
    18:00 +32°C° 0 mm 2 mps 741 mmHg 48%
    19:00 +31°C° 0 mm 2 mps 741 mmHg 53%
    20:00 +30°C° 0 mm 2 mps 742 mmHg 54%
    21:00 +30°C° 0 mm 1 mps 742 mmHg 56%
    22:00 +29°C° 0 mm 1 mps 743 mmHg 57%
    23:00 +29°C° 0 mm 1 mps 742 mmHg 58%

    Day after tomorrow, 22 February, Saturday

    Time Temperature Precipitation Wind Pressure Humidity
    00:00 +29°C° 0 mm 1 mps 742 mmHg 58%
    01:00 +29°C° 0 mm 1 mps 742 mmHg 59%
    02:00 +28°C° 0 mm 1 mps 742 mmHg 60%
    03:00 +28°C° 0 mm 2 mps 742 mmHg 60%
    04:00 +28°C° 0 mm 2 mps 742 mmHg 61%
    05:00 +28°C° 0 mm 2 mps 743 mmHg 61%
    06:00 +27°C° 0 mm 2 mps 743 mmHg 61%
    07:00 +27°C° 0 mm 2 mps 744 mmHg 62%
    08:00 +29°C° 0 mm 3 mps 744 mmHg 56%
    09:00 +31°C° 0 mm 3 mps 745 mmHg 50%
    10:00 +34°C° 0 mm 3 mps 745 mmHg 44%
    11:00 +35°C° 0 mm 3 mps 744 mmHg 40%
    12:00 +37°C° 0 mm 3 mps 743 mmHg 37%
    13:00 +38°C° 0 mm 3 mps 742 mmHg 33%
    14:00 +38°C° 0 mm 3 mps 741 mmHg 33%
    15:00 +38°C° 0 mm 3 mps 741 mmHg 33%
    16:00 +38°C° 0 mm 3 mps 740 mmHg 33%
    17:00 +36°C° 0 mm 2 mps 740 mmHg 38%
    18:00 +34°C° 0 mm 2 mps 741 mmHg 43%
    19:00 +32°C° 0 mm 1 mps 741 mmHg 48%
    20:00 +31°C° 0 mm 1 mps 742 mmHg 50%
    21:00 +30°C° 0 mm 2 mps 742 mmHg 51%
    22:00 +30°C° 0 mm 2 mps 743 mmHg 53%
    23:00 +30°C° 0 mm 1 mps 743 mmHg 54%

    23 February, Sunday

    Time Temperature Precipitation Wind Pressure Humidity
    00:00 +29°C° 0 mm 1 mps 742 mmHg 55%
    01:00 +29°C° 0 mm 1 mps 742 mmHg 56%
    02:00 +29°C° 0 mm 1 mps 742 mmHg 56%
    03:00 +28°C° 0 mm 2 mps 742 mmHg 57%
    04:00 +28°C° 0 mm 2 mps 742 mmHg 58%
    05:00 +28°C° 0 mm 2 mps 743 mmHg 58%
    06:00 +28°C° 0 mm 2 mps 743 mmHg 59%
    07:00 +28°C° 0 mm 2 mps 744 mmHg 60%
    08:00 +28°C° 0 mm 2 mps 744 mmHg 57%
    09:00 +29°C° 0 mm 3 mps 744 mmHg 54%
    10:00 +30°C° 0 mm 3 mps 745 mmHg 51%
    11:00 +33°C° 0 mm 3 mps 744 mmHg 46%
    12:00 +34°C° 0 mm 3 mps 743 mmHg 41%
    13:00 +36°C° 0 mm 3 mps 742 mmHg 36%
    14:00 +36°C° 0 mm 3 mps 741 mmHg 35%
    15:00 +37°C° 0 mm 3 mps 741 mmHg 34%
    16:00 +37°C° 0 mm 2 mps 740 mmHg 33%
    17:00 +35°C° 0 mm 2 mps 741 mmHg 36%
    18:00 +34°C° 0 mm 2 mps 741 mmHg 40%
    19:00 +31°C° 0 mm 1 mps 741 mmHg 44%
    20:00 +31°C° 0 mm 1 mps 742 mmHg 46%
    21:00 +31°C° 0 mm 1 mps 742 mmHg 47%
    22:00 +31°C° 0 mm 1 mps 743 mmHg 48%
    23:00 +31°C° 0 mm 1 mps 743 mmHg 49%

    24 February, Monday

    Time Temperature Precipitation Wind Pressure Humidity
    00:00 +30°C° 0 mm 1 mps 742 mmHg 49%
    01:00 +30°C° 0 mm 1 mps 742 mmHg 50%
    02:00 +30°C° 0 mm 1 mps 742 mmHg 52%
    03:00 +29°C° 0 mm 1 mps 742 mmHg 54%
    04:00 +28°C° 0 mm 2 mps 742 mmHg 56%
    05:00 +28°C° 0 mm 2 mps 742 mmHg 56%
    06:00 +28°C° 0 mm 3 mps 743 mmHg 57%
    07:00 +28°C° 0 mm 3 mps 744 mmHg 57%
    08:00 +28°C° 0 mm 3 mps 744 mmHg 56%
    09:00 +29°C° 0 mm 3 mps 744 mmHg 55%
    10:00 +29°C° 0 mm 3 mps 745 mmHg 54%
    11:00 +31°C° 0 mm 3 mps 744 mmHg 49%
    12:00 +33°C° 0 mm 3 mps 743 mmHg 45%
    13:00 +35°C° 0 mm 2 mps 742 mmHg 40%
    14:00 +35°C° 0 mm 2 mps 742 mmHg 38%
    15:00 +36°C° 0 mm 2 mps 741 mmHg 36%
    16:00 +36°C° 0 mm 1 mps 740 mmHg 34%
    17:00 +34°C° 0 mm 1 mps 741 mmHg 39%
    18:00 +32°C° 0 mm 1 mps 741 mmHg 43%
    19:00 +31°C° 0 mm 1 mps 741 mmHg 47%
    20:00 +30°C° 0 mm 1 mps 742 mmHg 49%
    21:00 +30°C° 0 mm 1 mps 742 mmHg 51%
    22:00 +29°C° 0 mm 1 mps 743 mmHg 53%
    23:00 +29°C° 0 mm 1 mps 743 mmHg 54%

    25 February, Tuesday

    Time Temperature Precipitation Wind Pressure Humidity
    00:00 +29°C° 0 mm 1 mps 743 mmHg 55%
    01:00 +28°C° 0 mm 1 mps 742 mmHg 56%
    02:00 +28°C° 0 mm 2 mps 742 mmHg 57%
    03:00 +28°C° 0 mm 2 mps 742 mmHg 59%
    04:00 +28°C° 0 mm 2 mps 742 mmHg 60%
    05:00 +28°C° 0 mm 2 mps 743 mmHg 60%
    06:00 +28°C° 0 mm 2 mps 743 mmHg 61%
    07:00 +28°C° 0 mm 2 mps 744 mmHg 61%
    08:00 +29°C° 0 mm 2 mps 744 mmHg 61%
    09:00 +29°C° 0 mm 2 mps 744 mmHg 61%
    10:00 +29°C° 0 mm 2 mps 745 mmHg 61%
    11:00 +31°C° 0 mm 2 mps 744 mmHg 55%
    12:00 +34°C° 0 mm 2 mps 743 mmHg 48%
    13:00 +36°C° 0 mm 2 mps 742 mmHg 42%
    14:00 +37°C° 0 mm 2 mps 741 mmHg 39%
    15:00 +37°C° 0 mm 2 mps 741 mmHg 37%
    16:00 +38°C° 0 mm 2 mps 740 mmHg 35%
    17:00 +36°C° 0 mm 2 mps 740 mmHg 39%
    18:00 +34°C° 0 mm 2 mps 740 mmHg 43%
    19:00 +32°C° 0 mm 2 mps 741 mmHg 48%
    20:00 +31°C° 0 mm 2 mps 741 mmHg 49%
    21:00 +31°C° 0 mm 1 mps 742 mmHg 51%
    22:00 +30°C° 0 mm 1 mps 742 mmHg 52%
    23:00 +30°C° 0 mm 1 mps 742 mmHg 52%
    Show more